Regional Weather Roundup
Issued by NWS Cleveland, OH

Home | Current Version | Previous Version | Text Only | Print | Product List | Glossary Off
Versions: 1 2 3 4 5 6 7 8 9 10 11 12 13 14 15 16 17 18 19 20 21 22 23 24 25 26 27 28 29 30 31 32 33 34 35 36 37 38 39 40 41 42 43 44 45 46 47 48 49 50

000
ASUS41 KCLE 212310
RWRCLE
OHIO REGIONAL WEATHER ROUNDUP
NATIONAL WEATHER SERVICE WILMINGTON, OH
600 PM EST WED FEB 21 2018

NOTE: "FAIR" INDICATES FEW OR NO CLOUDS BELOW 12,000 FEET WITH NO
SIGNIFICANT WEATHER AND/OR OBSTRUCTIONS TO VISIBILITY.

OHZ001>008-015>018-024>027-034-035-043-044-220000-
   NORTHWEST OHIO

CITY           SKY/WX    TMP DP  RH WIND       PRES   REMARKS
DEFIANCE       CLOUDY    40  33  76 NE10      30.54R
FINDLAY        CLOUDY    40  34  79 NE16      30.51R
TOLEDO EXPRESS MOCLDY    40  35  83 N7        30.53R
TOLEDO EXEC    CLOUDY    37  33  85 E10       30.56R
LIMA           CLOUDY    39  37  92 NE10      30.50R
$$

OHZ009>014-019>023-028>033-038-089-220000-
   NORTHEAST OHIO

CITY           SKY/WX    TMP DP  RH WIND       PRES   REMARKS
CLE-HOPKINS    CLOUDY    35  31  85 NE12      30.56R WCI  27
CLE-LAKEFRONT  MOCLDY    34  30  85 NE12      30.54S WCI  25
CUY CO. ARPT   CLOUDY    34  30  86 N12       30.54R WCI  25
LORAIN-ELYRIA  CLOUDY    34  27  75 NE18      30.55R WCI  23
ASHTABULA      CLOUDY    33  29  85 N6        30.54R WCI  28
AKRON-CANTON   LGT RAIN  38  33  82 N12       30.48R
WOOSTER        CLOUDY    36  34  92 N9        30.50R
MANSFIELD      MIX PCPN  36  35  96 N12       30.49R
YOUNGSTOWN     LGT RAIN  36  33  89 N12       30.49R
$$

OHZ042-051>053-060>062-070>072-077>081-220000-
  SOUTHWEST OHIO

CITY           SKY/WX    TMP DP  RH WIND       PRES   REMARKS
CINC-COVINGTON LGT RAIN  45  45 100 N14       30.44R
CINC-LUNKEN    LGT RAIN  47  45  93 N7        30.46R FOG
HAMILTON       LGT RAIN  44  32  62 N7        30.48R
DAYTON         LGT RAIN  41  41 100 N14       30.48R
WRIGHT-PAT AFB LGT RAIN  42  40  91 N10       30.45S
DAYTON GENERAL LGT RAIN  43  40  89 N8        30.45R
WILMINGTON     LGT RAIN  44  44 100 N12       30.43R
$$

OHZ036-037-039>041-045>050-054>059-063>069-073>076-082>088-220000-
  CENTRAL AND SOUTHEAST OHIO

CITY           SKY/WX    TMP DP  RH WIND       PRES   REMARKS
COLUMBUS       LGT RAIN  46  43  89 N15       30.45R
OSU AIRPORT    LGT RAIN  42  41  96 N15       30.45R
BOLTON FIELD   RAIN      43  43 100 N14       30.45R
RICKENBACK AFB DRIZZLE   45  44  94 N9        30.45R
NEWARK         CLOUDY    45  39  79 NE10      30.45R
MARION         LGT RAIN  38  35  89 NE15      30.50R
LANCASTER      CLOUDY    47  43  86 N9        30.45R
ZANESVILLE     CLOUDY    45  39  79 N13       30.45R
NEW PHILLY     CLOUDY    43  37  79 N7        30.49R
$$



USA.gov is the U.S. government's official web portal to all federal, state and local government web resources and services.